Location: Arrington
(35.8681°N, 86.7092°W)
Time: 15:30:58
(UTC+00:00)

Cosmos 2279 Rocket - Pass Details

Date: 23 November 2019
Orbit: 964 x 979 km, 82.9° (Epoch: 14 December)

Event Time Altitude Azimuth Distance (km) Brightness Sun altitude
Rises 23:57:30 0° 3° (N) 3,669 6.9 -16.5°
Reaches altitude 10° 00:00:15 10° 12° (NNE) 2,720 6.1 -17.0°
Maximum altitude 00:05:56 36° 77° (ENE) 1,486 4.4 -18.1°
Drops below altitude 10° 00:11:36 10° 143° (SE) 2,715 6.1 -19.3°
Sets 00:14:19 0° 152° (SSE) 3,660 6.8 -19.8°
